FW8649 Weather Reports


time (UTC)temp
F
wind
direction
speed
knots
gust
knots
rain 1hr
in
rain 24hr
in
rain mn
in
humidity
%
barometer
mb
20260510204522 84 319 0.9 5.2 0.00 0.00 0.00 45 1015.3
20260510203047 86 158 0.9 4.3 0.00 0.00 0.00 44 1015.6
20260510201518 86 139 1.7 5.2 0.00 0.00 0.00 46 1015.8
20260510200033 86 137 2.6 7.0 0.00 0.00 0.00 45 1015.9
20260510194700 86 174 0.9 3.5 0.00 0.00 0.00 45 1016.0
20260510150059 67 163 0.9 3.5 0.00 0.00 0.00 98 1017.2
20260510144524 66 180 1.7 3.5 0.00 0.00 0.00 99 1017.2
20260510143040 64 149 0.0 4.3 0.00 0.00 0.00 99 1017.3
20260510141559 64 195 0.9 3.5 0.00 0.00 0.00 99 1017.2
20260510140002 63 155 1.7 3.5 0.00 0.00 0.00 99 1017.1
20260510134530 62 171 0.0 2.6 0.00 0.00 0.00 99 1017.2
20260510133048 61 165 2.6 4.3 0.00 0.00 0.00 99 1017.1
20260510131510 60 169 0.0 3.5 0.00 0.00 0.00 99 1017.2
20260510130012 59 196 0.0 0.0 0.00 0.00 0.00 99 1017.2
20260510124552 58 213 0.0 0.0 0.00 0.00 0.00 99 1017.1
20260510123117 57 213 0.0 0.0 0.00 0.00 0.00 99 1017.0
20260510121526 56 213 0.0 0.0 0.00 0.00 0.00 98 1016.6
20260510120031 55 213 0.0 0.0 0.00 0.00 0.00 98 1016.2
20260510114548 54 227 0.0 0.0 0.00 0.00 0.00 97 1016.0
20260510113008 54 227 0.0 0.0 0.00 0.00 0.00 97 1015.6
20260510111537 53 227 0.0 0.0 0.00 0.00 0.00 97 1015.4
20260510110042 54 227 0.0 0.0 0.00 0.00 0.00 96 1015.1
20260510104601 54 227 0.0 0.0 0.00 0.00 0.00 96 1015.0
20260510103028 54 227 0.0 0.0 0.00 0.00 0.00 96 1014.7
20260510101553 54 227 0.0 0.0 0.00 0.00 0.00 96 1014.6
20260510094531 55 227 0.0 0.0 0.00 0.00 0.00 96 1014.3
20260510093041 55 227 0.0 0.0 0.00 0.00 0.00 96 1014.1
20260510091505 55 227 0.0 0.0 0.00 0.00 0.00 96 1014.2
20260510090020 55 227 0.0 0.0 0.00 0.00 0.00 96 1014.2
20260510084536 55 227 0.0 0.0 0.00 0.00 0.00 96 1014.2
20260510083058 56 227 0.0 0.0 0.00 0.00 0.00 95 1014.1
20260510081531 56 227 0.0 0.0 0.00 0.00 0.00 95 1013.8
20260510080034 57 227 0.0 0.0 0.00 0.00 0.00 96 1013.6
20260510074550 57 227 0.0 0.0 0.00 0.00 0.00 95 1013.5
20260510073022 57 227 0.0 0.0 0.00 0.00 0.00 95 1013.5
20260510071541 58 227 0.0 0.0 0.00 0.00 0.00 94 1013.5
20260510070047 58 227 0.0 0.0 0.00 0.00 0.00 94 1013.5
20260510064507 59 227 0.0 0.0 0.00 0.00 0.00 95 1013.7
20260510063036 59 227 0.0 0.0 0.00 0.00 0.00 95 1013.6
20260510061605 59 227 0.0 0.0 0.00 0.00 0.00 95 1013.5
20260510060015 60 227 0.0 0.0 0.00 0.00 0.00 95 1013.6
20260510054542 60 227 0.0 0.0 0.00 0.00 0.00 95 1013.5
20260510053056 60 227 0.0 0.0 0.00 0.00 0.00 95 1013.6
20260510051528 61 227 0.0 0.0 0.00 0.00 0.00 95 1013.8
20260510050021 61 227 0.0 0.0 0.00 0.00 0.00 95 1013.6
20260510044547 61 227 0.0 0.0 0.00 0.00 0.00 95 1013.7
20260510043010 61 227 0.0 0.0 0.00 0.00 0.00 94 1013.7
20260510041533 60 227 0.0 0.0 0.00 0.00 0.00 94 1013.8
20260510040040 60 227 0.0 0.0 0.00 0.00 0.00 93 1013.8
20260510034501 60 229 0.0 0.0 0.00 0.00 0.00 91 1013.9
20260510033033 61 259 0.0 0.0 0.00 0.00 0.00 90 1013.8
20260510031557 61 259 0.0 0.0 0.00 0.00 0.00 90 1013.6
20260510030007 62 259 0.0 0.0 0.00 0.00 0.00 88 1013.6
20260510024530 62 259 0.0 0.0 0.00 0.00 0.00 88 1013.3
20260510023057 63 259 0.0 0.0 0.00 0.00 0.00 87 1013.2
20260510021528 64 258 0.0 0.0 0.00 0.00 0.00 84 1012.8
20260510020026 65 258 0.0 0.0 0.00 0.00 0.00 83 1012.5
20260510014552 66 311 0.0 0.0 0.00 0.00 0.00 82 1012.1
20260510013003 67 311 0.0 0.0 0.00 0.00 0.00 81 1011.8
20260510011531 69 311 0.0 0.0 0.00 0.00 0.00 79 1011.7
20260510010037 71 311 0.0 0.0 0.00 0.00 0.00 75 1011.4
20260510004501 73 311 0.0 0.0 0.00 0.00 0.00 71 1011.2
20260510003035 74 311 0.0 0.0 0.00 0.00 0.00 69 1011.1
20260510001507 75 311 0.0 0.0 0.00 0.00 0.00 66 1010.8
20260510000027 76 311 0.0 0.0 0.00 0.00 0.00 60 1010.8
20260509234549 77 308 0.0 0.0 0.00 0.00 0.00 60 1010.8
20260509233026 77 229 0.0 0.0 0.00 0.00 0.00 62 1010.9
20260509231604 78 229 0.0 0.0 0.00 0.00 0.00 60 1010.8
20260509230007 78 228 0.0 0.0 0.00 0.00 0.00 59 1010.8
20260509224540 78 227 0.0 1.7 0.00 0.00 0.00 58 1010.8
20260509223019 79 223 0.9 5.2 0.00 0.00 0.00 58 1010.7
20260509221545 79 221 1.7 3.5 0.00 0.00 0.00 58 1010.5
20260509220048 79 254 0.9 4.3 0.00 0.00 0.00 57 1010.4
20260509214523 79 218 1.7 4.3 0.00 0.00 0.00 56 1010.2
20260509213052 79 239 0.9 4.3 0.00 0.00 0.00 55 1010.2
20260509211526 80 317 1.7 4.3 0.00 0.00 0.00 53 1010.3
20260509210043 81 304 1.7 7.0 0.00 0.00 0.00 56 1010.4